Year,Month,Day,Hour,Minute,Value (Times are PST for barometer in hPa)
2013,03,21,00,00,993.40
2013,03,21,00,01,993.40
2013,03,21,00,02,993.40
2013,03,21,00,03,993.40
2013,03,21,00,04,993.40
2013,03,21,00,05,993.40
2013,03,21,00,06,993.40
2013,03,21,00,07,993.40
2013,03,21,00,08,993.40
2013,03,21,00,09,993.40
2013,03,21,00,10,993.74
2013,03,21,00,11,993.74
2013,03,21,00,12,993.74
2013,03,21,00,13,993.74
2013,03,21,00,14,993.74
2013,03,21,00,15,993.74
2013,03,21,00,16,993.74
2013,03,21,00,17,993.74
2013,03,21,00,18,993.74
2013,03,21,00,19,993.74
2013,03,21,00,20,993.74
2013,03,21,00,21,993.74
2013,03,21,00,22,993.74
2013,03,21,00,23,993.74
2013,03,21,00,24,993.74
2013,03,21,00,25,993.97
2013,03,21,00,26,993.97
2013,03,21,00,27,993.97
2013,03,21,00,28,993.97
2013,03,21,00,29,993.97
2013,03,21,00,30,993.97
2013,03,21,00,31,993.97
2013,03,21,00,32,993.97
2013,03,21,00,33,993.97
2013,03,21,00,34,993.97
2013,03,21,00,35,993.97
2013,03,21,00,36,993.97
2013,03,21,00,37,993.97
2013,03,21,00,38,993.97
2013,03,21,00,39,993.97
2013,03,21,00,40,994.45
2013,03,21,00,41,994.45
2013,03,21,00,42,994.45
2013,03,21,00,43,994.45
2013,03,21,00,44,994.45
2013,03,21,00,45,994.45
2013,03,21,00,46,994.45
2013,03,21,00,47,994.45
2013,03,21,00,48,994.45
2013,03,21,00,49,994.45
2013,03,21,00,50,994.45
2013,03,21,00,51,994.45
2013,03,21,00,52,994.45
2013,03,21,00,53,994.45
2013,03,21,00,54,994.45
2013,03,21,00,55,994.45
2013,03,21,00,56,994.48
2013,03,21,00,57,994.48
2013,03,21,00,58,994.48
2013,03,21,00,59,994.48
2013,03,21,01,00,994.48
2013,03,21,01,01,994.48
2013,03,21,01,02,994.48
2013,03,21,01,03,994.48
2013,03,21,01,04,994.48
2013,03,21,01,05,994.48
2013,03,21,01,06,994.48
2013,03,21,01,07,994.48
2013,03,21,01,08,994.48
2013,03,21,01,09,994.48
2013,03,21,01,10,994.48
2013,03,21,01,11,994.55
2013,03,21,01,12,994.55
2013,03,21,01,13,994.55
2013,03,21,01,14,994.55
2013,03,21,01,15,994.55
2013,03,21,01,16,994.55
2013,03,21,01,17,994.55
2013,03,21,01,18,994.55
2013,03,21,01,19,994.55
2013,03,21,01,20,994.55
2013,03,21,01,21,994.55
2013,03,21,01,22,994.55
2013,03,21,01,23,994.55
2013,03,21,01,24,994.55
2013,03,21,01,25,994.55
2013,03,21,01,26,994.99
2013,03,21,01,27,994.99
2013,03,21,01,28,994.99
2013,03,21,01,29,994.99
2013,03,21,01,30,994.99
2013,03,21,01,31,994.99
2013,03,21,01,32,994.99
2013,03,21,01,33,994.99
2013,03,21,01,34,994.99
2013,03,21,01,35,994.99
2013,03,21,01,36,994.99
2013,03,21,01,37,994.99
2013,03,21,01,38,994.99
2013,03,21,01,39,994.99
2013,03,21,01,40,994.99
2013,03,21,01,41,995.19
2013,03,21,01,42,995.19
2013,03,21,01,43,995.19
2013,03,21,01,44,995.19
2013,03,21,01,45,995.19
2013,03,21,01,46,995.19
2013,03,21,01,47,995.19
2013,03,21,01,48,995.19
2013,03,21,01,49,995.19
2013,03,21,01,50,995.19
2013,03,21,01,51,995.19
2013,03,21,01,52,995.19
2013,03,21,01,53,995.19
2013,03,21,01,54,995.19
2013,03,21,01,55,995.19
2013,03,21,01,56,995.46
2013,03,21,01,57,995.46
2013,03,21,01,58,995.46
2013,03,21,01,59,995.46
2013,03,21,02,00,995.46
2013,03,21,02,01,995.46
2013,03,21,02,02,995.46
2013,03,21,02,03,995.46
2013,03,21,02,04,995.46
2013,03,21,02,05,995.46
2013,03,21,02,06,995.46
2013,03,21,02,07,995.46
2013,03,21,02,08,995.46
2013,03,21,02,09,995.46
2013,03,21,02,10,995.46
2013,03,21,02,11,995.53
2013,03,21,02,12,995.53
2013,03,21,02,13,995.53
2013,03,21,02,14,995.53
2013,03,21,02,15,995.53
2013,03,21,02,16,995.53
2013,03,21,02,17,995.53
2013,03,21,02,18,995.53
2013,03,21,02,19,995.53
2013,03,21,02,20,995.53
2013,03,21,02,21,995.53
2013,03,21,02,22,995.53
2013,03,21,02,23,995.53
2013,03,21,02,24,995.53
2013,03,21,02,25,995.53
2013,03,21,02,26,995.80
2013,03,21,02,27,995.80
2013,03,21,02,28,995.80
2013,03,21,02,29,995.80
2013,03,21,02,30,995.80
2013,03,21,02,31,995.80
2013,03,21,02,32,995.80
2013,03,21,02,33,995.80
2013,03,21,02,34,995.80
2013,03,21,02,35,995.80
2013,03,21,02,36,995.80
2013,03,21,02,37,995.80
2013,03,21,02,38,995.80
2013,03,21,02,39,995.80
2013,03,21,02,40,995.80
2013,03,21,02,41,995.90
2013,03,21,02,42,995.90
2013,03,21,02,43,995.90
2013,03,21,02,44,995.90
2013,03,21,02,45,995.90
2013,03,21,02,46,995.90
2013,03,21,02,47,995.90
2013,03,21,02,48,995.90
2013,03,21,02,49,995.90
2013,03,21,02,50,995.90
2013,03,21,02,51,995.90
2013,03,21,02,52,995.90
2013,03,21,02,53,995.90
2013,03,21,02,54,995.90
2013,03,21,02,55,995.90
2013,03,21,02,56,996.11
2013,03,21,02,57,996.11
2013,03,21,02,58,996.11
2013,03,21,02,59,996.11
2013,03,21,03,00,996.11
2013,03,21,03,01,996.11
2013,03,21,03,02,996.11
2013,03,21,03,03,996.11
2013,03,21,03,04,996.11
2013,03,21,03,05,996.11
2013,03,21,03,06,996.11
2013,03,21,03,07,996.11
2013,03,21,03,08,996.11
2013,03,21,03,09,996.11
2013,03,21,03,10,996.11
2013,03,21,03,11,996.34
2013,03,21,03,12,996.34
2013,03,21,03,13,996.34
2013,03,21,03,14,996.34
2013,03,21,03,15,996.34
2013,03,21,03,16,996.34
2013,03,21,03,17,996.34
2013,03,21,03,18,996.34
2013,03,21,03,19,996.34
2013,03,21,03,20,996.34
2013,03,21,03,21,996.34
2013,03,21,03,22,996.34
2013,03,21,03,23,996.34
2013,03,21,03,24,996.34
2013,03,21,03,25,996.34
2013,03,21,03,26,996.55
2013,03,21,03,27,996.55
2013,03,21,03,28,996.55
2013,03,21,03,29,996.55
2013,03,21,03,30,996.55
2013,03,21,03,31,996.55
2013,03,21,03,32,996.55
2013,03,21,03,33,996.55
2013,03,21,03,34,996.55
2013,03,21,03,35,996.55
2013,03,21,03,36,996.55
2013,03,21,03,37,996.55
2013,03,21,03,38,996.55
2013,03,21,03,39,996.55
2013,03,21,03,40,996.55
2013,03,21,03,41,996.58
2013,03,21,03,42,996.58
2013,03,21,03,43,996.58
2013,03,21,03,44,996.58
2013,03,21,03,45,996.58
2013,03,21,03,46,996.58
2013,03,21,03,47,996.58
2013,03,21,03,48,996.58
2013,03,21,03,49,996.58
2013,03,21,03,50,996.58
2013,03,21,03,51,996.58
2013,03,21,03,52,996.58
2013,03,21,03,53,996.58
2013,03,21,03,54,996.58
2013,03,21,03,55,996.58
2013,03,21,03,56,997.02
2013,03,21,03,57,997.02
2013,03,21,03,58,997.02
2013,03,21,03,59,997.02
2013,03,21,04,00,997.02
2013,03,21,04,01,997.02
2013,03,21,04,02,997.02
2013,03,21,04,03,997.02
2013,03,21,04,04,997.02
2013,03,21,04,05,997.02
2013,03,21,04,06,997.02
2013,03,21,04,07,997.02
2013,03,21,04,08,997.02
2013,03,21,04,09,997.02
2013,03,21,04,10,997.02
2013,03,21,04,11,997.05
2013,03,21,04,12,997.05
2013,03,21,04,13,997.05
2013,03,21,04,14,997.05
2013,03,21,04,15,997.05
2013,03,21,04,16,997.05
2013,03,21,04,17,997.05
2013,03,21,04,18,997.05
2013,03,21,04,19,997.05
2013,03,21,04,20,997.05
2013,03,21,04,21,997.05
2013,03,21,04,22,997.05
2013,03,21,04,23,997.05
2013,03,21,04,24,997.05
2013,03,21,04,25,997.05
2013,03,21,04,26,997.05
2013,03,21,04,27,997.05
2013,03,21,04,28,997.05
2013,03,21,04,29,997.05
2013,03,21,04,30,997.05
2013,03,21,04,31,997.05
2013,03,21,04,32,997.05
2013,03,21,04,33,997.05
2013,03,21,04,34,997.05
2013,03,21,04,35,997.05
2013,03,21,04,36,997.05
2013,03,21,04,37,997.05
2013,03,21,04,38,997.05
2013,03,21,04,39,997.05
2013,03,21,04,40,997.05
2013,03,21,04,41,997.05
2013,03,21,04,42,997.05
2013,03,21,04,43,997.05
2013,03,21,04,44,997.05
2013,03,21,04,45,997.05
2013,03,21,04,46,997.05
2013,03,21,04,47,997.05
2013,03,21,04,48,997.05
2013,03,21,04,49,997.05
2013,03,21,04,50,997.05
2013,03,21,04,51,997.05
2013,03,21,04,52,997.05
2013,03,21,04,53,997.05
2013,03,21,04,54,997.05
2013,03,21,04,55,997.05
2013,03,21,04,56,997.09
2013,03,21,04,57,997.09
2013,03,21,04,58,997.09
2013,03,21,04,59,997.09
2013,03,21,05,00,997.09
2013,03,21,05,01,997.09
2013,03,21,05,02,997.09
2013,03,21,05,03,997.09
2013,03,21,05,04,997.09
2013,03,21,05,05,997.09
2013,03,21,05,06,997.09
2013,03,21,05,07,997.09
2013,03,21,05,08,997.09
2013,03,21,05,09,997.09
2013,03,21,05,10,997.09
2013,03,21,05,11,997.46
2013,03,21,05,12,997.46
2013,03,21,05,13,997.46
2013,03,21,05,14,997.46
2013,03,21,05,15,997.46
2013,03,21,05,16,997.46
2013,03,21,05,17,997.46
2013,03,21,05,18,997.46
2013,03,21,05,19,997.46
2013,03,21,05,20,997.46
2013,03,21,05,21,997.46
2013,03,21,05,22,997.46
2013,03,21,05,23,997.46
2013,03,21,05,24,997.46
2013,03,21,05,25,997.46
2013,03,21,05,26,997.56
2013,03,21,05,27,997.56
2013,03,21,05,28,997.56
2013,03,21,05,29,997.56
2013,03,21,05,30,997.56
2013,03,21,05,31,997.56
2013,03,21,05,32,997.56
2013,03,21,05,33,997.56
2013,03,21,05,34,997.56
2013,03,21,05,35,997.56
2013,03,21,05,36,997.56
2013,03,21,05,37,997.56
2013,03,21,05,38,997.56
2013,03,21,05,39,997.56
2013,03,21,05,40,997.56
2013,03,21,05,41,997.56
2013,03,21,05,42,997.56
2013,03,21,05,43,997.56
2013,03,21,05,44,997.56
2013,03,21,05,45,997.56
2013,03,21,05,46,997.56
2013,03,21,05,47,997.56
2013,03,21,05,48,997.56
2013,03,21,05,49,997.56
2013,03,21,05,50,997.56
2013,03,21,05,51,997.56
2013,03,21,05,52,997.56
2013,03,21,05,53,997.56
2013,03,21,05,54,997.56
2013,03,21,05,55,997.56
2013,03,21,05,56,997.66
2013,03,21,05,57,997.66
2013,03,21,05,58,997.66
2013,03,21,05,59,997.66
2013,03,21,06,00,997.66
2013,03,21,06,01,997.66
2013,03,21,06,02,997.66
2013,03,21,06,03,997.66
2013,03,21,06,04,997.66
2013,03,21,06,05,997.66
2013,03,21,06,06,997.66
2013,03,21,06,07,997.66
2013,03,21,06,08,997.66
2013,03,21,06,09,997.66
2013,03,21,06,10,997.66
2013,03,21,06,11,997.77
2013,03,21,06,12,997.77
2013,03,21,06,13,997.77
2013,03,21,06,14,997.77
2013,03,21,06,15,997.77
2013,03,21,06,16,997.77
2013,03,21,06,17,997.77
2013,03,21,06,18,997.77
2013,03,21,06,19,997.77
2013,03,21,06,20,997.77
2013,03,21,06,21,997.77
2013,03,21,06,22,997.77
2013,03,21,06,23,997.77
2013,03,21,06,24,997.77
2013,03,21,06,25,997.77
2013,03,21,06,26,998.07
2013,03,21,06,27,998.07
2013,03,21,06,28,998.07
2013,03,21,06,29,998.07
2013,03,21,06,30,998.07
2013,03,21,06,31,998.07
2013,03,21,06,32,998.07
2013,03,21,06,33,998.07
2013,03,21,06,34,998.07
2013,03,21,06,35,998.07
2013,03,21,06,36,998.07
2013,03,21,06,37,998.07
2013,03,21,06,38,998.07
2013,03,21,06,39,998.07
2013,03,21,06,40,998.07
2013,03,21,06,41,998.14
2013,03,21,06,42,998.14
2013,03,21,06,43,998.14
2013,03,21,06,44,998.14
2013,03,21,06,45,998.14
2013,03,21,06,46,998.14
2013,03,21,06,47,998.14
2013,03,21,06,48,998.14
2013,03,21,06,49,998.14
2013,03,21,06,50,998.14
2013,03,21,06,51,998.14
2013,03,21,06,52,998.14
2013,03,21,06,53,998.14
2013,03,21,06,54,998.14
2013,03,21,06,55,998.14
2013,03,21,06,56,998.41
2013,03,21,06,57,998.41
2013,03,21,06,58,998.41
2013,03,21,06,59,998.41
2013,03,21,07,00,998.41
2013,03,21,07,01,998.41
2013,03,21,07,02,998.41
2013,03,21,07,03,998.41
2013,03,21,07,04,998.41
2013,03,21,07,05,998.41
2013,03,21,07,06,998.41
2013,03,21,07,07,998.41
2013,03,21,07,08,998.41
2013,03,21,07,09,998.41
2013,03,21,07,10,998.41
2013,03,21,07,11,998.44
2013,03,21,07,12,998.44
2013,03,21,07,13,998.44
2013,03,21,07,14,998.44
2013,03,21,07,15,998.44
2013,03,21,07,16,998.44
2013,03,21,07,17,998.44
2013,03,21,07,18,998.44
2013,03,21,07,19,998.44
2013,03,21,07,20,998.44
2013,03,21,07,21,998.44
2013,03,21,07,22,998.44
2013,03,21,07,23,998.44
2013,03,21,07,24,998.44
2013,03,21,07,25,998.44
2013,03,21,07,26,998.54
2013,03,21,07,27,998.54
2013,03,21,07,28,998.54
2013,03,21,07,29,998.54
2013,03,21,07,30,998.54
2013,03,21,07,31,998.54
2013,03,21,07,32,998.54
2013,03,21,07,33,998.54
2013,03,21,07,34,998.54
2013,03,21,07,35,998.54
2013,03,21,07,36,998.54
2013,03,21,07,37,998.54
2013,03,21,07,38,998.54
2013,03,21,07,39,998.54
2013,03,21,07,40,998.54
2013,03,21,07,41,998.71
2013,03,21,07,42,998.71
2013,03,21,07,43,998.71
2013,03,21,07,44,998.71
2013,03,21,07,45,998.71
2013,03,21,07,46,998.71
2013,03,21,07,47,998.71
2013,03,21,07,48,998.71
2013,03,21,07,49,998.71
2013,03,21,07,50,998.71
2013,03,21,07,51,998.71
2013,03,21,07,52,998.71
2013,03,21,07,53,998.71
2013,03,21,07,54,998.71
2013,03,21,07,55,998.71
2013,03,21,07,56,998.71
2013,03,21,07,57,998.71
2013,03,21,07,58,998.71
2013,03,21,07,59,998.71
2013,03,21,08,00,998.71
2013,03,21,08,01,998.71
2013,03,21,08,02,998.71
2013,03,21,08,03,998.71
2013,03,21,08,04,998.71
2013,03,21,08,05,998.71
2013,03,21,08,06,998.71
2013,03,21,08,07,998.71
2013,03,21,08,08,998.71
2013,03,21,08,09,998.71
2013,03,21,08,10,998.71
2013,03,21,08,11,999.15
2013,03,21,08,12,999.15
2013,03,21,08,13,999.15
2013,03,21,08,14,999.15
2013,03,21,08,15,999.15
2013,03,21,08,16,999.15
2013,03,21,08,17,999.15
2013,03,21,08,18,999.15
2013,03,21,08,19,999.15
2013,03,21,08,20,999.15
2013,03,21,08,21,999.15
2013,03,21,08,22,999.15
2013,03,21,08,23,999.15
2013,03,21,08,24,999.15
2013,03,21,08,25,999.15
2013,03,21,08,26,999.19
2013,03,21,08,27,999.19
2013,03,21,08,28,999.19
2013,03,21,08,29,999.19
2013,03,21,08,30,999.19
2013,03,21,08,31,999.19
2013,03,21,08,32,999.19
2013,03,21,08,33,999.19
2013,03,21,08,34,999.19
2013,03,21,08,35,999.19
2013,03,21,08,36,999.19
2013,03,21,08,37,999.19
2013,03,21,08,38,999.19
2013,03,21,08,39,999.19
2013,03,21,08,40,999.19
2013,03,21,08,41,999.22
2013,03,21,08,42,999.22
2013,03,21,08,43,999.22
2013,03,21,08,44,999.22
2013,03,21,08,45,999.22
2013,03,21,08,46,999.22
2013,03,21,08,47,999.22
2013,03,21,08,48,999.22
2013,03,21,08,49,999.22
2013,03,21,08,50,999.22
2013,03,21,08,51,999.22
2013,03,21,08,52,999.22
2013,03,21,08,53,999.22
2013,03,21,08,54,999.22
2013,03,21,08,55,999.22
2013,03,21,08,56,999.22
2013,03,21,08,57,999.22
2013,03,21,08,58,999.22
2013,03,21,08,59,999.22
2013,03,21,09,00,999.22
2013,03,21,09,01,999.22
2013,03,21,09,02,999.22
2013,03,21,09,03,999.22
2013,03,21,09,04,999.22
2013,03,21,09,05,999.22
2013,03,21,09,06,999.22
2013,03,21,09,07,999.22
2013,03,21,09,08,999.22
2013,03,21,09,09,999.22
2013,03,21,09,10,999.22
2013,03,21,09,11,999.22
2013,03,21,09,12,999.22
2013,03,21,09,13,999.22
2013,03,21,09,14,999.22
2013,03,21,09,15,999.22
2013,03,21,09,16,999.22
2013,03,21,09,17,999.22
2013,03,21,09,18,999.22
2013,03,21,09,19,999.22
2013,03,21,09,20,999.22
2013,03,21,09,21,999.22
2013,03,21,09,22,999.22
2013,03,21,09,23,999.22
2013,03,21,09,24,999.22
2013,03,21,09,25,999.22
2013,03,21,09,26,999.36
2013,03,21,09,27,999.36
2013,03,21,09,28,999.36
2013,03,21,09,29,999.36
2013,03,21,09,30,999.36
2013,03,21,09,31,999.36
2013,03,21,09,32,999.36
2013,03,21,09,33,999.36
2013,03,21,09,34,999.36
2013,03,21,09,35,999.36
2013,03,21,09,36,999.36
2013,03,21,09,37,999.36
2013,03,21,09,38,999.36
2013,03,21,09,39,999.36
2013,03,21,09,40,999.36
2013,03,21,09,41,999.70
2013,03,21,09,42,999.70
2013,03,21,09,43,999.70
2013,03,21,09,44,999.70
2013,03,21,09,45,999.70
2013,03,21,09,46,999.70
2013,03,21,09,47,999.70
2013,03,21,09,48,999.70
2013,03,21,09,49,999.70
2013,03,21,09,50,999.70
2013,03,21,09,51,999.70
2013,03,21,09,52,999.70
2013,03,21,09,53,999.70
2013,03,21,09,54,999.70
2013,03,21,09,55,999.70
2013,03,21,09,56,999.66
2013,03,21,09,57,999.66
2013,03,21,09,58,999.66
2013,03,21,09,59,999.66
2013,03,21,10,00,999.66
2013,03,21,10,01,999.66
2013,03,21,10,02,999.66
2013,03,21,10,03,999.66
2013,03,21,10,04,999.66
2013,03,21,10,05,999.66
2013,03,21,10,06,999.66
2013,03,21,10,07,999.66
2013,03,21,10,08,999.66
2013,03,21,10,09,999.66
2013,03,21,10,10,999.66
2013,03,21,10,11,999.49
2013,03,21,10,12,999.49
2013,03,21,10,13,999.49
2013,03,21,10,14,999.49
2013,03,21,10,15,999.49
2013,03,21,10,16,999.49
2013,03,21,10,17,999.49
2013,03,21,10,18,999.49
2013,03,21,10,19,999.49
2013,03,21,10,20,999.49
2013,03,21,10,21,999.49
2013,03,21,10,22,999.49
2013,03,21,10,23,999.49
2013,03,21,10,24,999.49
2013,03,21,10,25,999.49
2013,03,21,10,26,999.66
2013,03,21,10,27,999.66
2013,03,21,10,28,999.66
2013,03,21,10,29,999.66
2013,03,21,10,30,999.66
2013,03,21,10,31,999.66
2013,03,21,10,32,999.66
2013,03,21,10,33,999.66
2013,03,21,10,34,999.66
2013,03,21,10,35,999.66
2013,03,21,10,36,999.66
2013,03,21,10,37,999.66
2013,03,21,10,38,999.66
2013,03,21,10,39,999.66
2013,03,21,10,40,999.66
2013,03,21,10,41,999.66
2013,03,21,10,42,999.66
2013,03,21,10,43,999.66
2013,03,21,10,44,999.66
2013,03,21,10,45,999.66
2013,03,21,10,46,999.66
2013,03,21,10,47,999.66
2013,03,21,10,48,999.66
2013,03,21,10,49,999.66
2013,03,21,10,50,999.66
2013,03,21,10,51,999.66
2013,03,21,10,52,999.66
2013,03,21,10,53,999.66
2013,03,21,10,54,999.66
2013,03,21,10,55,999.66
2013,03,21,10,56,999.73
2013,03,21,10,57,999.73
2013,03,21,10,58,999.73
2013,03,21,10,59,999.73
2013,03,21,11,00,999.73
2013,03,21,11,01,999.73
2013,03,21,11,02,999.73
2013,03,21,11,03,999.73
2013,03,21,11,04,999.73
2013,03,21,11,05,999.73
2013,03,21,11,06,999.73
2013,03,21,11,07,999.73
2013,03,21,11,08,999.73
2013,03,21,11,09,999.73
2013,03,21,11,10,999.73
2013,03,21,11,11,999.76
2013,03,21,11,12,999.76
2013,03,21,11,13,999.76
2013,03,21,11,14,999.76
2013,03,21,11,15,999.76
2013,03,21,11,16,999.76
2013,03,21,11,17,999.76
2013,03,21,11,18,999.76
2013,03,21,11,19,999.76
2013,03,21,11,20,999.76
2013,03,21,11,21,999.76
2013,03,21,11,22,999.76
2013,03,21,11,23,999.76
2013,03,21,11,24,999.76
2013,03,21,11,25,999.76
2013,03,21,11,26,999.70
2013,03,21,11,27,999.70
2013,03,21,11,28,999.70
2013,03,21,11,29,999.70
2013,03,21,11,30,999.70
2013,03,21,11,31,999.70
2013,03,21,11,32,999.70
2013,03,21,11,33,999.70
2013,03,21,11,34,999.70
2013,03,21,11,35,999.70
2013,03,21,11,36,999.70
2013,03,21,11,37,999.70
2013,03,21,11,38,999.70
2013,03,21,11,39,999.70
2013,03,21,11,40,999.70
2013,03,21,11,41,999.70
2013,03,21,11,42,999.70
2013,03,21,11,43,999.70
2013,03,21,11,44,999.70
2013,03,21,11,45,999.70
2013,03,21,11,46,999.70
2013,03,21,11,47,999.70
2013,03,21,11,48,999.70
2013,03,21,11,49,999.70
2013,03,21,11,50,999.70
2013,03,21,11,51,999.70
2013,03,21,11,52,999.70
2013,03,21,11,53,999.70
2013,03,21,11,54,999.70
2013,03,21,11,55,999.70
2013,03,21,11,56,999.70
2013,03,21,11,57,999.70
2013,03,21,11,58,999.70
2013,03,21,11,59,999.70
2013,03,21,12,00,999.70
2013,03,21,12,02,999.70
2013,03,21,12,03,999.70
2013,03,21,12,04,999.70
2013,03,21,12,05,999.70
2013,03,21,12,06,999.70
2013,03,21,12,07,999.70
2013,03,21,12,08,999.70
2013,03,21,12,09,999.70
2013,03,21,12,10,999.70
2013,03,21,12,11,999.70
2013,03,21,12,12,999.70
2013,03,21,12,13,999.70
2013,03,21,12,14,999.70
2013,03,21,12,15,999.70
2013,03,21,12,16,999.70
2013,03,21,12,17,999.70
2013,03,21,12,18,999.70
2013,03,21,12,19,999.70
2013,03,21,12,20,999.70
2013,03,21,12,21,999.70
2013,03,21,12,22,999.70
2013,03,21,12,23,999.70
2013,03,21,12,24,999.70
2013,03,21,12,25,999.70
2013,03,21,12,26,999.73
2013,03,21,12,27,999.73
2013,03,21,12,28,999.73
2013,03,21,12,29,999.73
2013,03,21,12,30,999.73
2013,03,21,12,31,999.73
2013,03,21,12,32,999.73
2013,03,21,12,33,999.73
2013,03,21,12,34,999.73
2013,03,21,12,35,999.73
2013,03,21,12,36,999.73
2013,03,21,12,37,999.73
2013,03,21,12,38,999.73
2013,03,21,12,39,999.73
2013,03,21,12,40,999.73
2013,03,21,12,41,999.73
2013,03,21,12,42,999.73
2013,03,21,12,43,999.73
2013,03,21,12,44,999.73
2013,03,21,12,45,999.73
2013,03,21,12,46,999.73
2013,03,21,12,47,999.73
2013,03,21,12,48,999.73
2013,03,21,12,49,999.73
2013,03,21,12,50,999.73
2013,03,21,12,51,999.73
2013,03,21,12,52,999.73
2013,03,21,12,53,999.73
2013,03,21,12,54,999.73
2013,03,21,12,55,999.73
2013,03,21,12,56,999.73
2013,03,21,12,57,999.73
2013,03,21,12,58,999.73
2013,03,21,12,59,999.73
2013,03,21,13,00,999.73
2013,03,21,13,01,999.73
2013,03,21,13,02,999.73
2013,03,21,13,03,999.73
2013,03,21,13,04,999.73
2013,03,21,13,05,999.73
2013,03,21,13,06,999.73
2013,03,21,13,07,999.73
2013,03,21,13,08,999.73
2013,03,21,13,09,999.73
2013,03,21,13,10,999.73
2013,03,21,13,11,999.70
2013,03,21,13,12,999.70
2013,03,21,13,13,999.70
2013,03,21,13,14,999.70
2013,03,21,13,15,999.70
2013,03,21,13,16,999.70
2013,03,21,13,17,999.70
2013,03,21,13,18,999.70
2013,03,21,13,19,999.70
2013,03,21,13,20,999.70
2013,03,21,13,21,999.70
2013,03,21,13,22,999.70
2013,03,21,13,23,999.70
2013,03,21,13,24,999.70
2013,03,21,13,25,999.70
2013,03,21,13,26,999.36
2013,03,21,13,27,999.36
2013,03,21,13,28,999.36
2013,03,21,13,29,999.36
2013,03,21,13,30,999.36
2013,03,21,13,31,999.36
2013,03,21,13,32,999.36
2013,03,21,13,33,999.36
2013,03,21,13,34,999.36
2013,03,21,13,35,999.36
2013,03,21,13,36,999.36
2013,03,21,13,37,999.36
2013,03,21,13,38,999.36
2013,03,21,13,39,999.36
2013,03,21,13,40,999.36
2013,03,21,13,41,999.42
2013,03,21,13,42,999.42
2013,03,21,13,43,999.42
2013,03,21,13,44,999.42
2013,03,21,13,45,999.42
2013,03,21,13,46,999.42
2013,03,21,13,47,999.42
2013,03,21,13,48,999.42
2013,03,21,13,49,999.42
2013,03,21,13,50,999.42
2013,03,21,13,51,999.42
2013,03,21,13,52,999.42
2013,03,21,13,53,999.42
2013,03,21,13,54,999.42
2013,03,21,13,55,999.42
2013,03,21,13,56,999.32
2013,03,21,13,57,999.32
2013,03,21,13,58,999.32
2013,03,21,13,59,999.32
2013,03,21,14,00,999.32
2013,03,21,14,01,999.32
2013,03,21,14,02,999.32
2013,03,21,14,03,999.32
2013,03,21,14,04,999.32
2013,03,21,14,05,999.32
2013,03,21,14,06,999.32
2013,03,21,14,07,999.32
2013,03,21,14,08,999.32
2013,03,21,14,09,999.32
2013,03,21,14,10,999.32
2013,03,21,14,11,999.15
2013,03,21,14,12,999.15
2013,03,21,14,13,999.15
2013,03,21,14,14,999.15
2013,03,21,14,15,999.15
2013,03,21,14,16,999.15
2013,03,21,14,17,999.15
2013,03,21,14,18,999.15
2013,03,21,14,19,999.15
2013,03,21,14,20,999.15
2013,03,21,14,21,999.15
2013,03,21,14,22,999.15
2013,03,21,14,23,999.15
2013,03,21,14,24,999.15
2013,03,21,14,25,999.15
2013,03,21,14,26,999.12
2013,03,21,14,27,999.12
2013,03,21,14,28,999.12
2013,03,21,14,29,999.12
2013,03,21,14,30,999.12
2013,03,21,14,31,999.12
2013,03,21,14,32,999.12
2013,03,21,14,33,999.12
2013,03,21,14,34,999.12
2013,03,21,14,35,999.12
2013,03,21,14,36,999.12
2013,03,21,14,37,999.12
2013,03,21,14,38,999.12
2013,03,21,14,39,999.12
2013,03,21,14,40,999.12
2013,03,21,14,41,998.88
2013,03,21,14,42,998.88
2013,03,21,14,43,998.88
2013,03,21,14,44,998.88
2013,03,21,14,45,998.88
2013,03,21,14,46,998.88
2013,03,21,14,47,998.88
2013,03,21,14,48,998.88
2013,03,21,14,49,998.88
2013,03,21,14,50,998.88
2013,03,21,14,51,998.88
2013,03,21,14,52,998.88
2013,03,21,14,53,998.88
2013,03,21,14,54,998.88
2013,03,21,14,55,998.88
2013,03,21,14,56,998.81
2013,03,21,14,57,998.81
2013,03,21,14,58,998.81
2013,03,21,14,59,998.81
2013,03,21,15,00,998.81
2013,03,21,15,01,998.81
2013,03,21,15,02,998.81
2013,03,21,15,03,998.81
2013,03,21,15,04,998.81
2013,03,21,15,05,998.81
2013,03,21,15,06,998.81
2013,03,21,15,07,998.81
2013,03,21,15,08,998.81
2013,03,21,15,09,998.81
2013,03,21,15,10,998.81
2013,03,21,15,11,998.75
2013,03,21,15,12,998.75
2013,03,21,15,13,998.75
2013,03,21,15,14,998.75
2013,03,21,15,15,998.75
2013,03,21,15,16,998.75
2013,03,21,15,17,998.75
2013,03,21,15,18,998.75
2013,03,21,15,19,998.75
2013,03,21,15,20,998.75
2013,03,21,15,21,998.75
2013,03,21,15,22,998.75
2013,03,21,15,23,998.75
2013,03,21,15,24,998.75
2013,03,21,15,25,998.75
2013,03,21,15,26,998.81
2013,03,21,15,27,998.81
2013,03,21,15,28,998.81
2013,03,21,15,29,998.81
2013,03,21,15,30,998.81
2013,03,21,15,31,998.81
2013,03,21,15,32,998.81
2013,03,21,15,33,998.81
2013,03,21,15,34,998.81
2013,03,21,15,35,998.81
2013,03,21,15,36,998.81
2013,03,21,15,37,998.81
2013,03,21,15,38,998.81
2013,03,21,15,39,998.81
2013,03,21,15,40,998.81
2013,03,21,15,41,998.85
2013,03,21,15,42,998.85
2013,03,21,15,43,998.85
2013,03,21,15,44,998.85
2013,03,21,15,45,998.85
2013,03,21,15,46,998.85
2013,03,21,15,47,998.85
2013,03,21,15,48,998.85
2013,03,21,15,49,998.85
2013,03,21,15,50,998.85
2013,03,21,15,51,998.85
2013,03,21,15,52,998.85
2013,03,21,15,53,998.85
2013,03,21,15,54,998.85
2013,03,21,15,55,998.85
2013,03,21,15,56,998.68
2013,03,21,15,57,998.68
2013,03,21,15,58,998.68
2013,03,21,15,59,998.68
2013,03,21,16,00,998.68
2013,03,21,16,01,998.68
2013,03,21,16,02,998.68
2013,03,21,16,03,998.68
2013,03,21,16,04,998.68
2013,03,21,16,05,998.68
2013,03,21,16,06,998.68
2013,03,21,16,07,998.68
2013,03,21,16,08,998.68
2013,03,21,16,09,998.68
2013,03,21,16,10,998.68
2013,03,21,16,11,999.09
2013,03,21,16,12,999.09
2013,03,21,16,13,999.09
2013,03,21,16,14,999.09
2013,03,21,16,15,999.09
2013,03,21,16,16,999.09
2013,03,21,16,17,999.09
2013,03,21,16,18,999.09
2013,03,21,16,19,999.09
2013,03,21,16,20,999.09
2013,03,21,16,21,999.09
2013,03,21,16,22,999.09
2013,03,21,16,23,999.09
2013,03,21,16,24,999.09
2013,03,21,16,25,999.09
2013,03,21,16,26,999.02
2013,03,21,16,27,999.02
2013,03,21,16,28,999.02
2013,03,21,16,29,999.02
2013,03,21,16,30,999.02
2013,03,21,16,31,999.02
2013,03,21,16,32,999.02
2013,03,21,16,33,999.02
2013,03,21,16,34,999.02
2013,03,21,16,35,999.02
2013,03,21,16,36,999.02
2013,03,21,16,37,999.02